| time (UTC) | temp F | wind direction | speed knots | gust knots | rain 1hr in | rain 24hr in | rain mn in | humidity % | barometer mb |
| 20260901113505 | 68 | 230 | 4.3 | 8.7 | 0.00 | 0.00 | 0.00 | 59 | 1021.5 |
| 20260901110005 | 69 | 235 | 2.6 | 10.4 | 0.00 | 0.00 | 0.00 | 56 | 1021.5 |
| 20260901103005 | 67 | 241 | 1.7 | 10.4 | 0.00 | 0.05 | 0.00 | 57 | 1021.6 |
| 20260901100504 | 66 | 243 | 0.9 | 7.0 | 0.00 | 0.05 | 0.00 | 60 | 1021.9 |
| 20260901093004 | 64 | 240 | 2.6 | 8.7 | 0.00 | 0.05 | 0.00 | 61 | 1022.1 |
| 20260901090504 | 62 | 232 | 1.7 | 6.1 | 0.00 | 0.05 | 0.00 | 67 | 1022.0 |
| 20260901090004 | 62 | 236 | 0.0 | 2.6 | 0.00 | 0.05 | 0.00 | 70 | 1021.9 |
| 20260901083004 | 60 | 244 | 1.7 | 2.6 | 0.00 | 0.05 | 0.00 | 74 | 1021.8 |
| 20260901080004 | 59 | 247 | 0.0 | 1.7 | 0.00 | 0.05 | 0.00 | 78 | 1021.6 |
| 20260901073504 | 57 | 246 | 0.0 | 0.0 | 0.00 | 0.05 | 0.00 | 83 | 1021.5 |
| 20260901070504 | 56 | 246 | 0.0 | 0.0 | 0.00 | 0.05 | 0.00 | 86 | 1021.5 |
| 20260901063504 | 54 | 246 | 0.0 | 0.0 | 0.00 | 0.05 | 0.00 | 91 | 1021.4 |
| 20260901063004 | 54 | 246 | 0.0 | 0.9 | 0.00 | 0.05 | 0.00 | 91 | 1021.3 |
| 20260901050504 | 52 | 246 | 0.0 | 0.0 | 0.00 | 0.05 | 0.00 | 90 | 1020.9 |
| 20260901043004 | 52 | 246 | 0.0 | 0.0 | 0.00 | 0.05 | 0.00 | 88 | 1020.6 |
| 20260901040003 | 53 | 246 | 0.0 | 0.0 | 0.00 | 0.05 | 0.00 | 88 | 1020.4 |
| 20260901033504 | 54 | 246 | 0.0 | 0.0 | 0.00 | 0.05 | 0.00 | 86 | 1020.4 |
| 20260901033004 | 54 | 246 | 0.0 | 0.0 | 0.00 | 0.05 | 0.00 | 86 | 1020.3 |
| 20260901023004 | 56 | 246 | 0.0 | 1.7 | 0.00 | 0.05 | 0.00 | 85 | 1020.3 |
| 20260901020504 | 56 | 246 | 0.0 | 0.0 | 0.00 | 0.05 | 0.00 | 84 | 1020.3 |
| 20260901010503 | 57 | 241 | 0.0 | 0.0 | 0.00 | 0.05 | 0.00 | 80 | 1020.1 |
| 20260901010003 | 58 | 241 | 0.0 | 0.0 | 0.00 | 0.05 | 0.00 | 79 | 1020.0 |
| 20260901000503 | 59 | 241 | 0.0 | 0.0 | 0.00 | 0.14 | 0.00 | 77 | 1020.1 |
| 20260901000003 | 60 | 241 | 0.0 | 2.6 | 0.00 | 0.15 | 0.00 | 77 | 1020.0 |
| 20260831233504 | 60 | 327 | 0.0 | 1.7 | 0.00 | 0.15 | 0.00 | 77 | 1019.8 |
| 20260831233004 | 60 | 283 | 0.0 | 0.0 | 0.00 | 0.15 | 0.00 | 77 | 1019.9 |
| 20260831230504 | 61 | 283 | 0.0 | 0.0 | 0.00 | 0.15 | 0.00 | 76 | 1019.6 |
| 20260831230003 | 61 | 283 | 0.0 | 2.6 | 0.00 | 0.15 | 0.00 | 76 | 1019.6 |
| 20260831223005 | 61 | 249 | 0.0 | 2.6 | 0.00 | 0.15 | 0.15 | 74 | 1019.6 |
| 20260831213503 | 62 | 273 | 0.0 | 0.9 | 0.00 | 0.16 | 0.15 | 72 | 1019.2 |
| 20260831213003 | 62 | 250 | 0.0 | 2.6 | 0.00 | 0.16 | 0.15 | 72 | 1019.1 |
| 20260831210503 | 63 | 277 | 0.0 | 0.0 | 0.00 | 0.16 | 0.15 | 71 | 1018.9 |
| 20260831210003 | 63 | 277 | 0.0 | 5.2 | 0.00 | 0.16 | 0.15 | 71 | 1018.9 |
| 20260831203504 | 63 | 247 | 0.0 | 1.7 | 0.00 | 0.16 | 0.15 | 71 | 1018.6 |
| 20260831203003 | 63 | 253 | 0.0 | 2.6 | 0.00 | 0.16 | 0.15 | 71 | 1018.6 |
| 20260831200504 | 64 | 247 | 0.9 | 2.6 | 0.00 | 0.16 | 0.15 | 71 | 1018.2 |
| 20260831193503 | 65 | 302 | 0.0 | 0.0 | 0.00 | 0.16 | 0.15 | 70 | 1017.8 |
| 20260831193003 | 65 | 304 | 0.0 | 1.7 | 0.00 | 0.16 | 0.15 | 70 | 1017.8 |
| 20260831190504 | 66 | 246 | 0.0 | 2.6 | 0.00 | 0.16 | 0.15 | 68 | 1017.5 |
| 20260831183503 | 67 | 295 | 0.9 | 2.6 | 0.00 | 0.16 | 0.15 | 67 | 1017.2 |
| 20260831183003 | 67 | 277 | 0.9 | 13.0 | 0.00 | 0.16 | 0.15 | 67 | 1017.2 |
| 20260831180504 | 68 | 260 | 0.9 | 6.1 | 0.00 | 0.16 | 0.15 | 66 | 1016.8 |
| 20260831170503 | 70 | 206 | 0.9 | 6.1 | 0.00 | 0.16 | 0.15 | 64 | 1016.0 |
| 20260831163502 | 71 | 317 | 0.9 | 6.1 | 0.00 | 0.16 | 0.15 | 60 | 1015.6 |
| 20260831163003 | 71 | 312 | 0.0 | 15.6 | 0.00 | 0.16 | 0.15 | 60 | 1015.6 |
| 20260831160503 | 73 | 289 | 1.7 | 10.4 | 0.00 | 0.16 | 0.15 | 57 | 1015.3 |
| 20260831160003 | 73 | 294 | 1.7 | 13.0 | 0.00 | 0.16 | 0.15 | 56 | 1015.2 |
| 20260831153503 | 73 | 273 | 2.6 | 11.3 | 0.00 | 0.16 | 0.15 | 57 | 1014.8 |
| 20260831150503 | 73 | 266 | 0.0 | 6.1 | 0.00 | 0.16 | 0.15 | 58 | 1014.7 |
| 20260831150003 | 73 | 297 | 0.9 | 12.2 | 0.00 | 0.16 | 0.15 | 57 | 1014.7 |
| 20260831143002 | 73 | 304 | 2.6 | 11.3 | 0.00 | 0.16 | 0.15 | 58 | 1014.6 |
| 20260831140503 | 73 | 278 | 0.9 | 7.0 | 0.00 | 0.16 | 0.15 | 56 | 1014.3 |
| 20260831133002 | 72 | 326 | 2.6 | 10.4 | 0.00 | 0.16 | 0.15 | 63 | 1014.1 |